Napa County, CA

11:19 PM PDT on July 24, 2017 (GMT -0700)
Napa County

Weather History for KAPC - June, 2011

Change the Weather History Date:

Tuesday, June 7, 2011

  Actual Average Record
Temperature  
Mean Temperature 59 °F 63 °F  
Max Temperature 71 °F 77 °F 93 °F (2001)
Min Temperature 47 °F 49 °F 37 °F (1999)
Degree Days  
Heating Degree Days 6    
Month to date heating degree days 64  
Since 1 June heating degree days 64  
Since 1 July heating degree days 3362  
Cooling Degree Days 0    
Month to date cooling degree days 0  
Year to date cooling degree days 0  
Since 1 June cooling degree days 0  
Growing Degree Days 9 (Base 50)    
Moisture  
Dew Point 52 °F    
Average Humidity 82    
Maximum Humidity 100    
Minimum Humidity 63    
Precipitation  
Precipitation 0.00 in - 0.54 in (1947)
Month to date precipitation 1.29  
Year to date precipitation 14.92  
Since 1 July precipitation 26.82  
Sea Level Pressure  
Sea Level Pressure 29.99 in    
Wind  
Wind Speed 7 mph (SW)    
Max Wind Speed 20 mph    
Max Gust Speed 28 mph    
Visibility 5 miles    
Events Fog    
T = Trace of Precipitation, MM = Missing Value Source: NWS Daily Summary

Daily Weather History Graph

Daily Weather History Graph

Search for Another Location

Airport or City:

Trip Planner

Search our weather history database for the weather conditions in past years. The results will help you decide how hot, cold, wet, or windy it might be!

Date:

Astronomy

Jun. 07, 2011 Rise Set
Actual Time 5:45 AM PDT 8:30 PM PDT
Civil Twilight 5:14 AM PDT 9:01 PM PDT
Nautical Twilight 4:35 AM PDT 9:40 PM PDT
Astronomical Twilight 3:51 AM PDT 10:25 PM PDT
Moon 11:44 AM PDT (6/7) 12:12 AM PDT (6/7)
Length of Visible Light 15h 46m
Length of Day
14h 44m
Waxing Crescent, 36% of the Moon is Illuminated
Jun 7
Waxing Crescent
Jun 8
First Quarter
Jun 15
Full
Jun 23
Last Quarter
Jul 1
New

Hourly Weather History & Observations

Time (PDT) Temp. Dew Point Humidity Pressure Visibility Wind Dir Wind Speed Gust Speed Precip Events Conditions
12:54 AM 48.0 °F 46.9 °F 96% 30.03 in 4.0 mi Calm Calm - N/A   Clear
1:54 AM 50.0 °F 48.9 °F 96% 30.02 in 5.0 mi SW 3.5 mph - N/A   Overcast
2:04 AM 51.8 °F 51.8 °F 100% 30.04 in 5.0 mi Calm Calm - N/A   Overcast
2:51 AM 53.6 °F 51.8 °F 94% 30.03 in 5.0 mi West 3.5 mph - N/A   Overcast
2:54 AM 53.1 °F 52.0 °F 96% 30.01 in 5.0 mi Calm Calm - N/A   Overcast
3:52 AM 51.8 °F 48.2 °F 88% 30.03 in 1.5 mi Calm Calm - N/A   Mostly Cloudy
3:54 AM 50.0 °F 48.9 °F 96% 30.00 in 1.0 mi Calm Calm - N/A   Mostly Cloudy
4:11 AM 50.0 °F 48.2 °F 94% 30.03 in 2.0 mi Calm Calm - N/A   Scattered Clouds
4:23 AM 48.2 °F 48.2 °F 100% 30.02 in 0.8 mi Calm Calm - N/A   Partly Cloudy
4:32 AM 50.0 °F 48.2 °F 94% 30.02 in 1.0 mi WSW 4.6 mph - N/A   Clear
4:43 AM 48.2 °F 48.2 °F 100% 30.02 in 1.0 mi Calm Calm - N/A   Mist
4:48 AM 48.2 °F 48.2 °F 100% 30.02 in 0.5 mi Calm Calm - N/A Fog Fog
4:54 AM 48.9 °F 46.9 °F 93% 30.00 in 0.5 mi Calm Calm - N/A Fog Fog
5:54 AM 51.1 °F 50.0 °F 96% 30.00 in 0.2 mi Calm Calm - N/A Fog Fog
6:17 AM 48.2 °F 48.2 °F 100% 30.03 in 0.2 mi Calm Calm - N/A Fog Fog
6:26 AM 48.2 °F 48.2 °F 100% 30.03 in 0.8 mi South 3.5 mph - N/A   Scattered Clouds
6:35 AM 48.2 °F 48.2 °F 100% 30.03 in 1.5 mi SSW 3.5 mph - N/A   Partly Cloudy
6:42 AM 50.0 °F 50.0 °F 100% 30.03 in 3.0 mi SW 4.6 mph - N/A   Clear
6:44 AM - - N/A% - - North - - N/A   Unknown
6:54 AM 53.1 °F 52.0 °F 96% 30.01 in 3.0 mi Calm Calm - N/A   Mostly Cloudy
7:30 AM 53.6 °F 53.6 °F 100% 30.03 in 5.0 mi SW 3.5 mph - N/A   Mostly Cloudy
7:54 AM 54.0 °F 53.1 °F 97% 30.01 in 4.0 mi WNW 3.5 mph - N/A   Overcast
8:54 AM 55.9 °F 53.1 °F 90% 30.01 in 5.0 mi Calm Calm - N/A   Overcast
9:54 AM 57.0 °F 53.1 °F 87% 30.01 in 7.0 mi SSW 5.8 mph - N/A   Overcast
10:43 AM 60.8 °F 53.6 °F 77% 30.03 in 8.0 mi Variable 4.6 mph - N/A   Overcast
10:54 AM 61.0 °F 54.0 °F 78% 30.00 in 8.0 mi SSW 5.8 mph - N/A   Overcast
11:05 AM 60.8 °F 55.4 °F 82% 30.03 in 8.0 mi South 6.9 mph - N/A   Scattered Clouds
11:54 AM 64.9 °F 55.0 °F 70% 30.00 in 9.0 mi SSW 8.1 mph - N/A   Scattered Clouds
12:54 PM 68.0 °F 55.9 °F 65% 29.98 in 9.0 mi SSW 9.2 mph - N/A   Scattered Clouds
1:54 PM 69.1 °F 57.0 °F 65% 29.96 in 9.0 mi SSW 11.5 mph - N/A   Clear
2:54 PM 70.0 °F 57.0 °F 63% 29.95 in 9.0 mi SSW 11.5 mph - N/A   Clear
3:54 PM 70.0 °F 57.0 °F 63% 29.93 in 9.0 mi SSW 16.1 mph - N/A   Clear
4:54 PM 68.0 °F 55.9 °F 65% 29.92 in 9.0 mi South 17.3 mph - N/A   Clear
5:54 PM 69.1 °F 57.0 °F 65% 29.92 in 8.0 mi SSW 10.4 mph - N/A   Clear
6:54 PM 64.9 °F 52.0 °F 63% 29.92 in 8.0 mi West 9.2 mph - N/A   Clear
7:54 PM 62.1 °F 51.1 °F 67% 29.93 in 8.0 mi WSW 10.4 mph - N/A   Clear
8:54 PM 57.9 °F 52.0 °F 81% 29.93 in 8.0 mi SW 8.1 mph - N/A   Clear
9:54 PM 55.9 °F 51.1 °F 84% 29.93 in 8.0 mi SW 10.4 mph - N/A   Clear
10:54 PM 55.0 °F 51.1 °F 86% 29.94 in 7.0 mi SW 9.2 mph - N/A   Clear
11:54 PM 54.0 °F 51.1 °F 90% 29.94 in 7.0 mi WSW 5.8 mph - N/A   Partly Cloudy